Year,Month,Day,Hour,Minute,Value (Times are PST for temperature in C)
2016,08,07,00,00,12.70
2016,08,07,00,01,12.70
2016,08,07,00,02,12.70
2016,08,07,00,03,12.70
2016,08,07,00,04,12.50
2016,08,07,00,05,12.40
2016,08,07,00,06,12.30
2016,08,07,00,07,12.30
2016,08,07,00,08,12.30
2016,08,07,00,09,12.30
2016,08,07,00,10,12.20
2016,08,07,00,11,12.20
2016,08,07,00,12,12.20
2016,08,07,00,13,12.10
2016,08,07,00,14,12.10
2016,08,07,00,15,12.10
2016,08,07,00,16,12.00
2016,08,07,00,17,12.00
2016,08,07,00,18,12.00
2016,08,07,00,19,11.90
2016,08,07,00,20,11.90
2016,08,07,00,21,11.90
2016,08,07,00,22,11.90
2016,08,07,00,23,11.90
2016,08,07,00,24,11.90
2016,08,07,00,25,11.90
2016,08,07,00,26,11.90
2016,08,07,00,27,11.80
2016,08,07,00,28,11.80
2016,08,07,00,29,11.80
2016,08,07,00,30,11.80
2016,08,07,00,31,11.80
2016,08,07,00,32,11.80
2016,08,07,00,33,11.70
2016,08,07,00,34,11.70
2016,08,07,00,35,11.70
2016,08,07,00,36,11.70
2016,08,07,00,37,11.60
2016,08,07,00,38,11.60
2016,08,07,00,39,11.60
2016,08,07,00,40,11.60
2016,08,07,00,41,11.70
2016,08,07,00,42,11.70
2016,08,07,00,43,11.70
2016,08,07,00,44,11.80
2016,08,07,00,45,11.80
2016,08,07,00,46,11.80
2016,08,07,00,47,11.80
2016,08,07,00,48,11.80
2016,08,07,00,49,11.80
2016,08,07,00,50,11.80
2016,08,07,00,51,11.80
2016,08,07,00,52,11.80
2016,08,07,00,53,11.70
2016,08,07,00,54,11.70
2016,08,07,00,55,11.70
2016,08,07,00,56,11.70
2016,08,07,00,57,11.70
2016,08,07,00,58,11.60
2016,08,07,00,59,11.60
2016,08,07,01,00,11.60
2016,08,07,01,01,11.50
2016,08,07,01,02,11.50
2016,08,07,01,03,11.50
2016,08,07,01,04,11.40
2016,08,07,01,05,11.40
2016,08,07,01,06,11.40
2016,08,07,01,07,11.40
2016,08,07,01,08,11.40
2016,08,07,01,09,11.40
2016,08,07,01,10,11.30
2016,08,07,01,11,11.30
2016,08,07,01,12,11.30
2016,08,07,01,13,11.30
2016,08,07,01,14,11.30
2016,08,07,01,15,11.30
2016,08,07,01,16,11.30
2016,08,07,01,17,11.30
2016,08,07,01,18,11.20
2016,08,07,01,19,11.20
2016,08,07,01,20,11.20
2016,08,07,01,21,11.20
2016,08,07,01,22,11.20
2016,08,07,01,23,11.20
2016,08,07,01,24,11.20
2016,08,07,01,25,11.20
2016,08,07,01,26,11.20
2016,08,07,01,27,11.10
2016,08,07,01,28,11.10
2016,08,07,01,29,11.10
2016,08,07,01,30,11.10
2016,08,07,01,31,11.00
2016,08,07,01,32,11.00
2016,08,07,01,33,10.90
2016,08,07,01,34,10.90
2016,08,07,01,35,10.90
2016,08,07,01,36,10.90
2016,08,07,01,37,10.80
2016,08,07,01,38,10.80
2016,08,07,01,39,10.80
2016,08,07,01,40,10.80
2016,08,07,01,41,10.80
2016,08,07,01,42,10.80
2016,08,07,01,43,10.90
2016,08,07,01,44,10.90
2016,08,07,01,45,11.00
2016,08,07,01,46,11.00
2016,08,07,01,47,11.00
2016,08,07,01,48,11.10
2016,08,07,01,49,11.10
2016,08,07,01,50,11.10
2016,08,07,01,51,11.10
2016,08,07,01,52,11.10
2016,08,07,01,53,11.10
2016,08,07,01,54,11.10
2016,08,07,01,55,11.10
2016,08,07,01,56,11.10
2016,08,07,01,57,11.10
2016,08,07,01,58,11.10
2016,08,07,01,59,11.10
2016,08,07,02,00,11.00
2016,08,07,02,01,11.00
2016,08,07,02,02,11.00
2016,08,07,02,03,11.00
2016,08,07,02,04,11.00
2016,08,07,02,05,11.00
2016,08,07,02,06,11.00
2016,08,07,02,07,11.00
2016,08,07,02,08,11.00
2016,08,07,02,09,11.00
2016,08,07,02,10,11.10
2016,08,07,02,11,11.10
2016,08,07,02,12,11.20
2016,08,07,02,13,11.20
2016,08,07,02,14,11.20
2016,08,07,02,15,11.20
2016,08,07,02,16,11.30
2016,08,07,02,17,11.30
2016,08,07,02,18,11.30
2016,08,07,02,19,11.30
2016,08,07,02,20,11.30
2016,08,07,02,21,11.30
2016,08,07,02,22,11.30
2016,08,07,02,23,11.30
2016,08,07,02,24,11.30
2016,08,07,02,25,11.30
2016,08,07,02,26,11.20
2016,08,07,02,27,11.20
2016,08,07,02,28,11.20
2016,08,07,02,29,11.20
2016,08,07,02,30,11.10
2016,08,07,02,31,11.10
2016,08,07,02,32,11.10
2016,08,07,02,33,11.10
2016,08,07,02,34,11.10
2016,08,07,02,35,11.00
2016,08,07,02,36,11.00
2016,08,07,02,37,11.00
2016,08,07,02,38,11.00
2016,08,07,02,39,11.10
2016,08,07,02,40,11.10
2016,08,07,02,41,11.10
2016,08,07,02,42,11.20
2016,08,07,02,43,11.20
2016,08,07,02,44,11.30
2016,08,07,02,45,11.40
2016,08,07,02,46,11.50
2016,08,07,02,47,11.70
2016,08,07,02,48,11.80
2016,08,07,02,49,11.90
2016,08,07,02,50,12.00
2016,08,07,02,51,12.00
2016,08,07,02,52,12.10
2016,08,07,02,53,12.20
2016,08,07,02,54,12.30
2016,08,07,02,55,12.30
2016,08,07,02,56,12.30
2016,08,07,02,57,12.30
2016,08,07,02,58,12.30
2016,08,07,02,59,12.20
2016,08,07,03,00,12.20
2016,08,07,03,01,12.20
2016,08,07,03,02,12.20
2016,08,07,03,03,12.20
2016,08,07,03,04,12.20
2016,08,07,03,05,12.20
2016,08,07,03,06,12.20
2016,08,07,03,07,12.30
2016,08,07,03,08,12.30
2016,08,07,03,09,12.30
2016,08,07,03,10,12.30
2016,08,07,03,11,12.30
2016,08,07,03,12,12.30
2016,08,07,03,13,12.30
2016,08,07,03,14,12.30
2016,08,07,03,15,12.20
2016,08,07,03,16,12.20
2016,08,07,03,17,12.30
2016,08,07,03,18,12.30
2016,08,07,03,19,12.30
2016,08,07,03,20,12.30
2016,08,07,03,21,12.40
2016,08,07,03,22,12.40
2016,08,07,03,23,12.40
2016,08,07,03,24,12.40
2016,08,07,03,25,12.30
2016,08,07,03,26,12.30
2016,08,07,03,27,12.30
2016,08,07,03,28,12.30
2016,08,07,03,29,12.30
2016,08,07,03,30,12.20
2016,08,07,03,31,12.20
2016,08,07,03,32,12.10
2016,08,07,03,33,12.10
2016,08,07,03,34,12.00
2016,08,07,03,35,12.00
2016,08,07,03,36,11.90
2016,08,07,03,37,11.80
2016,08,07,03,38,11.80
2016,08,07,03,39,11.80
2016,08,07,03,40,11.70
2016,08,07,03,41,11.70
2016,08,07,03,42,11.70
2016,08,07,03,43,11.70
2016,08,07,03,44,11.60
2016,08,07,03,45,11.60
2016,08,07,03,46,11.60
2016,08,07,03,47,11.50
2016,08,07,03,48,11.50
2016,08,07,03,49,11.40
2016,08,07,03,50,11.40
2016,08,07,03,51,11.40
2016,08,07,03,52,11.40
2016,08,07,03,53,11.40
2016,08,07,03,54,11.40
2016,08,07,03,55,11.40
2016,08,07,03,56,11.40
2016,08,07,03,57,11.40
2016,08,07,03,58,11.40
2016,08,07,03,59,11.40
2016,08,07,04,00,11.40
2016,08,07,04,01,11.30
2016,08,07,04,02,11.30
2016,08,07,04,03,11.30
2016,08,07,04,04,11.30
2016,08,07,04,05,11.20
2016,08,07,04,06,11.20
2016,08,07,04,07,11.10
2016,08,07,04,08,11.10
2016,08,07,04,09,11.10
2016,08,07,04,10,11.10
2016,08,07,04,11,11.10
2016,08,07,04,12,11.10
2016,08,07,04,13,11.00
2016,08,07,04,14,11.10
2016,08,07,04,15,11.10
2016,08,07,04,16,11.10
2016,08,07,04,17,11.10
2016,08,07,04,18,11.10
2016,08,07,04,19,11.10
2016,08,07,04,20,11.10
2016,08,07,04,21,11.20
2016,08,07,04,22,11.20
2016,08,07,04,23,11.20
2016,08,07,04,24,11.20
2016,08,07,04,25,11.10
2016,08,07,04,26,11.10
2016,08,07,04,27,11.10
2016,08,07,04,28,11.10
2016,08,07,04,29,11.10
2016,08,07,04,30,11.10
2016,08,07,04,31,11.10
2016,08,07,04,32,11.10
2016,08,07,04,33,11.10
2016,08,07,04,34,11.00
2016,08,07,04,35,11.00
2016,08,07,04,36,11.00
2016,08,07,04,37,11.00
2016,08,07,04,38,11.00
2016,08,07,04,39,11.00
2016,08,07,04,40,11.00
2016,08,07,04,41,11.00
2016,08,07,04,42,11.00
2016,08,07,04,43,11.00
2016,08,07,04,44,11.00
2016,08,07,04,45,11.00
2016,08,07,04,46,11.00
2016,08,07,04,47,11.00
2016,08,07,04,48,11.00
2016,08,07,04,49,11.00
2016,08,07,04,50,11.00
2016,08,07,04,51,11.00
2016,08,07,04,52,11.10
2016,08,07,04,53,11.10
2016,08,07,04,54,11.10
2016,08,07,04,55,11.20
2016,08,07,04,56,11.20
2016,08,07,04,57,11.20
2016,08,07,04,58,11.20
2016,08,07,04,59,11.20
2016,08,07,05,00,11.20
2016,08,07,05,01,11.20
2016,08,07,05,02,11.20
2016,08,07,05,03,11.20
2016,08,07,05,04,11.20
2016,08,07,05,05,11.20
2016,08,07,05,06,11.20
2016,08,07,05,07,11.30
2016,08,07,05,08,11.30
2016,08,07,05,09,11.40
2016,08,07,05,10,11.40
2016,08,07,05,11,11.50
2016,08,07,05,12,11.60
2016,08,07,05,13,11.60
2016,08,07,05,14,11.70
2016,08,07,05,15,11.80
2016,08,07,05,16,11.80
2016,08,07,05,17,11.90
2016,08,07,05,18,11.90
2016,08,07,05,19,11.90
2016,08,07,05,20,11.90
2016,08,07,05,21,11.90
2016,08,07,05,22,11.90
2016,08,07,05,23,11.80
2016,08,07,05,24,11.80
2016,08,07,05,25,11.70
2016,08,07,05,26,11.70
2016,08,07,05,27,11.70
2016,08,07,05,28,11.70
2016,08,07,05,29,11.60
2016,08,07,05,30,11.60
2016,08,07,05,31,11.60
2016,08,07,05,32,11.60
2016,08,07,05,33,11.60
2016,08,07,05,34,11.60
2016,08,07,05,35,11.60
2016,08,07,05,36,11.60
2016,08,07,05,37,11.60
2016,08,07,05,38,11.60
2016,08,07,05,39,11.70
2016,08,07,05,40,11.70
2016,08,07,05,41,11.70
2016,08,07,05,42,11.70
2016,08,07,05,43,11.70
2016,08,07,05,44,11.70
2016,08,07,05,45,11.70
2016,08,07,05,46,11.70
2016,08,07,05,47,11.60
2016,08,07,05,48,11.60
2016,08,07,05,49,11.60
2016,08,07,05,50,11.60
2016,08,07,05,51,11.50
2016,08,07,05,52,11.50
2016,08,07,05,53,11.50
2016,08,07,05,54,11.50
2016,08,07,05,55,11.50
2016,08,07,05,56,11.40
2016,08,07,05,57,11.40
2016,08,07,05,58,11.40
2016,08,07,05,59,11.40
2016,08,07,06,00,11.40
2016,08,07,06,01,11.40
2016,08,07,06,02,11.30
2016,08,07,06,03,11.30
2016,08,07,06,04,11.30
2016,08,07,06,05,11.30
2016,08,07,06,06,11.40
2016,08,07,06,07,11.40
2016,08,07,06,08,11.40
2016,08,07,06,09,11.40
2016,08,07,06,10,11.40
2016,08,07,06,11,11.40
2016,08,07,06,12,11.40
2016,08,07,06,13,11.30
2016,08,07,06,14,11.30
2016,08,07,06,15,11.30
2016,08,07,06,16,11.30
2016,08,07,06,17,11.30
2016,08,07,06,18,11.30
2016,08,07,06,19,11.30
2016,08,07,06,20,11.30
2016,08,07,06,21,11.30
2016,08,07,06,22,11.30
2016,08,07,06,23,11.30
2016,08,07,06,24,11.30
2016,08,07,06,25,11.30
2016,08,07,06,26,11.30
2016,08,07,06,27,11.30
2016,08,07,06,28,11.30
2016,08,07,06,29,11.30
2016,08,07,06,30,11.30
2016,08,07,06,31,11.30
2016,08,07,06,32,11.30
2016,08,07,06,33,11.30
2016,08,07,06,34,11.30
2016,08,07,06,35,11.30
2016,08,07,06,36,11.40
2016,08,07,06,37,11.40
2016,08,07,06,38,11.50
2016,08,07,06,39,11.50
2016,08,07,06,40,11.60
2016,08,07,06,41,11.60
2016,08,07,06,42,11.60
2016,08,07,06,43,11.60
2016,08,07,06,44,11.70
2016,08,07,06,45,11.70
2016,08,07,06,46,11.70
2016,08,07,06,47,11.70
2016,08,07,06,48,11.70
2016,08,07,06,49,11.70
2016,08,07,06,50,11.80
2016,08,07,06,51,11.80
2016,08,07,06,52,11.80
2016,08,07,06,53,11.80
2016,08,07,06,54,11.80
2016,08,07,06,55,11.90
2016,08,07,06,56,11.90
2016,08,07,06,57,11.90
2016,08,07,06,58,11.90
2016,08,07,06,59,11.90
2016,08,07,07,00,11.90
2016,08,07,07,01,12.00
2016,08,07,07,02,12.00
2016,08,07,07,03,12.00
2016,08,07,07,04,12.00
2016,08,07,07,05,12.00
2016,08,07,07,06,12.00
2016,08,07,07,07,12.00
2016,08,07,07,08,12.10
2016,08,07,07,09,12.10
2016,08,07,07,10,12.10
2016,08,07,07,11,12.10
2016,08,07,07,12,12.10
2016,08,07,07,13,12.10
2016,08,07,07,14,12.10
2016,08,07,07,15,12.10
2016,08,07,07,16,12.10
2016,08,07,07,17,12.10
2016,08,07,07,18,12.10
2016,08,07,07,19,12.10
2016,08,07,07,20,12.10
2016,08,07,07,21,12.10
2016,08,07,07,22,12.20
2016,08,07,07,23,12.20
2016,08,07,07,24,12.20
2016,08,07,07,25,12.20
2016,08,07,07,26,12.20
2016,08,07,07,27,12.20
2016,08,07,07,28,12.20
2016,08,07,07,29,12.20
2016,08,07,07,30,12.20
2016,08,07,07,31,12.30
2016,08,07,07,32,12.30
2016,08,07,07,33,12.30
2016,08,07,07,34,12.30
2016,08,07,07,35,12.30
2016,08,07,07,36,12.40
2016,08,07,07,37,12.40
2016,08,07,07,38,12.40
2016,08,07,07,39,12.50
2016,08,07,07,40,12.50
2016,08,07,07,41,12.60
2016,08,07,07,42,12.60
2016,08,07,07,43,12.60
2016,08,07,07,44,12.60
2016,08,07,07,45,12.70
2016,08,07,07,46,12.70
2016,08,07,07,47,12.70
2016,08,07,07,48,12.80
2016,08,07,07,49,12.90
2016,08,07,07,50,12.90
2016,08,07,07,51,13.10
2016,08,07,07,52,13.20
2016,08,07,07,53,13.30
2016,08,07,07,54,13.30
2016,08,07,07,55,13.40
2016,08,07,07,56,13.50
2016,08,07,07,57,13.60
2016,08,07,07,58,13.60
2016,08,07,07,59,13.70
2016,08,07,08,00,13.70
2016,08,07,08,01,13.80
2016,08,07,08,02,13.80
2016,08,07,08,03,13.90
2016,08,07,08,04,13.90
2016,08,07,08,05,14.00
2016,08,07,08,06,14.10
2016,08,07,08,07,14.10
2016,08,07,08,08,14.20
2016,08,07,08,09,14.30
2016,08,07,08,10,14.40
2016,08,07,08,11,14.40
2016,08,07,08,12,14.50
2016,08,07,08,13,14.60
2016,08,07,08,14,14.70
2016,08,07,08,15,14.70
2016,08,07,08,16,14.80
2016,08,07,08,17,14.80
2016,08,07,08,18,14.90
2016,08,07,08,19,14.90
2016,08,07,08,20,14.90
2016,08,07,08,21,14.90
2016,08,07,08,22,14.90
2016,08,07,08,23,14.90
2016,08,07,08,24,14.90
2016,08,07,08,25,14.90
2016,08,07,08,26,14.90
2016,08,07,08,27,14.90
2016,08,07,08,28,14.90
2016,08,07,08,29,14.90
2016,08,07,08,30,14.90
2016,08,07,08,31,15.00
2016,08,07,08,32,15.00
2016,08,07,08,33,15.00
2016,08,07,08,34,15.00
2016,08,07,08,35,15.00
2016,08,07,08,36,15.00
2016,08,07,08,37,14.90
2016,08,07,08,38,14.90
2016,08,07,08,39,15.00
2016,08,07,08,40,15.00
2016,08,07,08,41,15.00
2016,08,07,08,42,15.00
2016,08,07,08,43,15.00
2016,08,07,08,44,15.00
2016,08,07,08,45,15.10
2016,08,07,08,46,15.10
2016,08,07,08,47,15.20
2016,08,07,08,48,15.20
2016,08,07,08,49,15.20
2016,08,07,08,50,15.30
2016,08,07,08,51,15.30
2016,08,07,08,52,15.40
2016,08,07,08,53,15.40
2016,08,07,08,54,15.40
2016,08,07,08,55,15.40
2016,08,07,08,56,15.50
2016,08,07,08,57,15.40
2016,08,07,08,58,15.40
2016,08,07,08,59,15.40
2016,08,07,09,00,15.40
2016,08,07,09,01,15.50
2016,08,07,09,02,15.50
2016,08,07,09,03,15.50
2016,08,07,09,04,15.50
2016,08,07,09,05,15.50
2016,08,07,09,06,15.50
2016,08,07,09,07,15.50
2016,08,07,09,08,15.50
2016,08,07,09,09,15.50
2016,08,07,09,10,15.60
2016,08,07,09,11,15.60
2016,08,07,09,12,15.60
2016,08,07,09,13,15.60
2016,08,07,09,14,15.60
2016,08,07,09,15,15.60
2016,08,07,09,16,15.60
2016,08,07,09,17,15.60
2016,08,07,09,18,15.70
2016,08,07,09,19,15.70
2016,08,07,09,20,15.70
2016,08,07,09,21,15.70
2016,08,07,09,22,15.70
2016,08,07,09,23,15.70
2016,08,07,09,24,15.70
2016,08,07,09,25,15.80
2016,08,07,09,26,15.80
2016,08,07,09,27,15.80
2016,08,07,09,28,15.80
2016,08,07,09,29,15.90
2016,08,07,09,30,15.90
2016,08,07,09,31,16.00
2016,08,07,09,32,16.10
2016,08,07,09,33,16.30
2016,08,07,09,34,16.40
2016,08,07,09,35,16.50
2016,08,07,09,36,16.50
2016,08,07,09,37,16.60
2016,08,07,09,38,16.70
2016,08,07,09,39,16.70
2016,08,07,09,40,16.80
2016,08,07,09,41,16.80
2016,08,07,09,42,16.80
2016,08,07,09,43,16.80
2016,08,07,09,44,16.80
2016,08,07,09,45,16.80
2016,08,07,09,46,16.80
2016,08,07,09,47,16.80
2016,08,07,09,48,16.80
2016,08,07,09,49,16.70
2016,08,07,09,50,16.70
2016,08,07,09,51,16.60
2016,08,07,09,52,16.50
2016,08,07,09,53,16.50
2016,08,07,09,54,16.40
2016,08,07,09,55,16.40
2016,08,07,09,56,16.40
2016,08,07,09,57,16.40
2016,08,07,09,58,16.40
2016,08,07,09,59,16.40
2016,08,07,10,00,16.40
2016,08,07,10,01,16.40
2016,08,07,10,02,16.50
2016,08,07,10,03,16.50
2016,08,07,10,04,16.50
2016,08,07,10,05,16.50
2016,08,07,10,06,16.50
2016,08,07,10,07,16.50
2016,08,07,10,08,16.50
2016,08,07,10,09,16.50
2016,08,07,10,10,16.50
2016,08,07,10,11,16.50
2016,08,07,10,12,16.50
2016,08,07,10,13,16.60
2016,08,07,10,14,16.60
2016,08,07,10,15,16.70
2016,08,07,10,16,16.80
2016,08,07,10,17,16.80
2016,08,07,10,18,16.90
2016,08,07,10,19,17.00
2016,08,07,10,20,17.10
2016,08,07,10,21,17.20
2016,08,07,10,22,17.40
2016,08,07,10,23,17.50
2016,08,07,10,24,17.60
2016,08,07,10,25,17.60
2016,08,07,10,26,17.70
2016,08,07,10,27,17.70
2016,08,07,10,28,17.70
2016,08,07,10,29,17.70
2016,08,07,10,30,17.80
2016,08,07,10,31,17.80
2016,08,07,10,32,17.90
2016,08,07,10,33,18.00
2016,08,07,10,34,18.10
2016,08,07,10,35,18.10
2016,08,07,10,36,18.20
2016,08,07,10,37,18.10
2016,08,07,10,38,18.10
2016,08,07,10,39,18.10
2016,08,07,10,40,18.10
2016,08,07,10,41,18.10
2016,08,07,10,42,18.10
2016,08,07,10,43,18.10
2016,08,07,10,44,18.10
2016,08,07,10,45,18.20
2016,08,07,10,46,18.30
2016,08,07,10,47,18.30
2016,08,07,10,48,18.40
2016,08,07,10,49,18.40
2016,08,07,10,50,18.40
2016,08,07,10,51,18.40
2016,08,07,10,52,18.40
2016,08,07,10,53,18.40
2016,08,07,10,54,18.40
2016,08,07,10,55,18.30
2016,08,07,10,56,18.30
2016,08,07,10,57,18.30
2016,08,07,10,58,18.30
2016,08,07,10,59,18.30
2016,08,07,11,00,18.40
2016,08,07,11,01,18.40
2016,08,07,11,02,18.30
2016,08,07,11,03,18.30
2016,08,07,11,04,18.20
2016,08,07,11,05,18.20
2016,08,07,11,06,18.20
2016,08,07,11,07,18.10
2016,08,07,11,08,18.10
2016,08,07,11,09,18.10
2016,08,07,11,10,18.10
2016,08,07,11,11,18.10
2016,08,07,11,12,18.10
2016,08,07,11,13,18.20
2016,08,07,11,14,18.30
2016,08,07,11,15,18.30
2016,08,07,11,16,18.40
2016,08,07,11,17,18.50
2016,08,07,11,18,18.60
2016,08,07,11,19,18.60
2016,08,07,11,20,18.60
2016,08,07,11,21,18.60
2016,08,07,11,22,18.60
2016,08,07,11,23,18.60
2016,08,07,11,24,18.60
2016,08,07,11,25,18.50
2016,08,07,11,26,18.50
2016,08,07,11,27,18.50
2016,08,07,11,28,18.50
2016,08,07,11,29,18.50
2016,08,07,11,30,18.50
2016,08,07,11,31,18.60
2016,08,07,11,32,18.60
2016,08,07,11,33,18.60
2016,08,07,11,34,18.60
2016,08,07,11,35,18.60
2016,08,07,11,36,18.60
2016,08,07,11,37,18.60
2016,08,07,11,38,18.60
2016,08,07,11,39,18.60
2016,08,07,11,40,18.50
2016,08,07,11,41,18.60
2016,08,07,11,42,18.60
2016,08,07,11,43,18.60
2016,08,07,11,44,18.60
2016,08,07,11,45,18.60
2016,08,07,11,46,18.60
2016,08,07,11,47,18.60
2016,08,07,11,48,18.70
2016,08,07,11,49,18.70
2016,08,07,11,50,18.70
2016,08,07,11,51,18.70
2016,08,07,11,52,18.70
2016,08,07,11,53,18.60
2016,08,07,11,54,18.60
2016,08,07,11,55,18.60
2016,08,07,11,56,18.60
2016,08,07,11,57,18.70
2016,08,07,11,58,18.70
2016,08,07,11,59,18.70
2016,08,07,12,00,18.70
2016,08,07,12,01,18.70
2016,08,07,12,02,18.60
2016,08,07,12,03,18.60
2016,08,07,12,04,18.50
2016,08,07,12,05,18.50
2016,08,07,12,06,18.40
2016,08,07,12,07,18.40
2016,08,07,12,08,18.40
2016,08,07,12,09,18.40
2016,08,07,12,10,18.40
2016,08,07,12,11,18.40
2016,08,07,12,12,18.40
2016,08,07,12,13,18.40
2016,08,07,12,14,18.40
2016,08,07,12,15,18.40
2016,08,07,12,16,18.50
2016,08,07,12,17,18.50
2016,08,07,12,18,18.50
2016,08,07,12,19,18.50
2016,08,07,12,20,18.60
2016,08,07,12,21,18.60
2016,08,07,12,22,18.60
2016,08,07,12,23,18.60
2016,08,07,12,24,18.60
2016,08,07,12,25,18.70
2016,08,07,12,26,18.70
2016,08,07,12,27,18.80
2016,08,07,12,28,18.80
2016,08,07,12,29,18.80
2016,08,07,12,30,18.80
2016,08,07,12,31,18.80
2016,08,07,12,32,18.80
2016,08,07,12,33,18.80
2016,08,07,12,34,18.80
2016,08,07,12,35,18.80
2016,08,07,12,36,18.80
2016,08,07,12,37,18.80
2016,08,07,12,38,18.80
2016,08,07,12,39,18.80
2016,08,07,12,40,18.80
2016,08,07,12,41,18.80
2016,08,07,12,42,18.80
2016,08,07,12,43,18.80
2016,08,07,12,44,18.80
2016,08,07,12,45,18.80
2016,08,07,12,46,18.80
2016,08,07,12,47,18.80
2016,08,07,12,48,18.80
2016,08,07,12,49,18.70
2016,08,07,12,50,18.60
2016,08,07,12,51,18.50
2016,08,07,12,52,18.50
2016,08,07,12,53,18.40
2016,08,07,12,54,18.30
2016,08,07,12,55,18.20
2016,08,07,12,56,18.10
2016,08,07,12,57,18.00
2016,08,07,12,58,18.00
2016,08,07,12,59,17.90
2016,08,07,13,00,17.80
2016,08,07,13,01,17.70
2016,08,07,13,02,17.70
2016,08,07,13,03,17.60
2016,08,07,13,04,17.50
2016,08,07,13,05,17.40
2016,08,07,13,06,17.30
2016,08,07,13,07,17.20
2016,08,07,13,08,17.10
2016,08,07,13,09,17.00
2016,08,07,13,10,16.90
2016,08,07,13,11,16.80
2016,08,07,13,12,16.70
2016,08,07,13,13,16.60
2016,08,07,13,14,16.50
2016,08,07,13,15,16.40
2016,08,07,13,16,16.40
2016,08,07,13,17,16.30
2016,08,07,13,18,16.20
2016,08,07,13,19,16.20
2016,08,07,13,20,16.20
2016,08,07,13,21,16.10
2016,08,07,13,22,16.10
2016,08,07,13,23,16.10
2016,08,07,13,24,16.10
2016,08,07,13,25,16.10
2016,08,07,13,26,16.10
2016,08,07,13,27,16.10
2016,08,07,13,28,16.10
2016,08,07,13,29,16.10
2016,08,07,13,30,16.10
2016,08,07,13,31,16.10
2016,08,07,13,32,16.10
2016,08,07,13,33,16.10
2016,08,07,13,34,16.10
2016,08,07,13,35,16.10
2016,08,07,13,36,16.00
2016,08,07,13,37,16.00
2016,08,07,13,38,15.90
2016,08,07,13,39,15.90
2016,08,07,13,40,15.90
2016,08,07,13,41,15.90
2016,08,07,13,42,15.90
2016,08,07,13,43,15.90
2016,08,07,13,44,15.80
2016,08,07,13,45,15.90
2016,08,07,13,46,15.90
2016,08,07,13,47,15.90
2016,08,07,13,48,15.90
2016,08,07,13,49,15.90
2016,08,07,13,50,15.80
2016,08,07,13,51,15.80
2016,08,07,13,52,15.80
2016,08,07,13,53,15.80
2016,08,07,13,54,15.80
2016,08,07,13,55,15.70
2016,08,07,13,56,15.70
2016,08,07,13,57,15.60
2016,08,07,13,58,15.60
2016,08,07,13,59,15.60
2016,08,07,14,00,15.50
2016,08,07,14,01,15.50
2016,08,07,14,02,15.50
2016,08,07,14,03,15.40
2016,08,07,14,04,15.40
2016,08,07,14,05,15.40
2016,08,07,14,06,15.30
2016,08,07,14,07,15.30
2016,08,07,14,08,15.30
2016,08,07,14,09,15.30
2016,08,07,14,10,15.30
2016,08,07,14,11,15.20
2016,08,07,14,12,15.20
2016,08,07,14,13,15.20
2016,08,07,14,14,15.20
2016,08,07,14,15,15.20
2016,08,07,14,16,15.10
2016,08,07,14,17,15.10
2016,08,07,14,18,15.10
2016,08,07,14,19,15.10
2016,08,07,14,20,15.10
2016,08,07,14,21,15.10
2016,08,07,14,22,15.10
2016,08,07,14,23,15.10
2016,08,07,14,24,15.00
2016,08,07,14,25,15.00
2016,08,07,14,26,15.00
2016,08,07,14,27,15.00
2016,08,07,14,28,15.00
2016,08,07,14,29,15.10
2016,08,07,14,30,15.10
2016,08,07,14,31,15.10
2016,08,07,14,32,15.00
2016,08,07,14,33,15.10
2016,08,07,14,34,15.00
2016,08,07,14,35,15.00
2016,08,07,14,36,15.00
2016,08,07,14,37,15.10
2016,08,07,14,38,15.10
2016,08,07,14,39,15.10
2016,08,07,14,40,15.10
2016,08,07,14,41,15.10
2016,08,07,14,42,15.10
2016,08,07,14,43,15.10
2016,08,07,14,44,15.10
2016,08,07,14,45,15.10
2016,08,07,14,46,15.10
2016,08,07,14,47,15.10
2016,08,07,14,48,15.10
2016,08,07,14,49,15.00
2016,08,07,14,50,15.00
2016,08,07,14,51,15.00
2016,08,07,14,52,15.00
2016,08,07,14,53,15.00
2016,08,07,14,54,15.00
2016,08,07,14,55,15.00
2016,08,07,14,56,15.00
2016,08,07,14,57,15.00
2016,08,07,14,58,15.00
2016,08,07,14,59,15.00
2016,08,07,15,00,15.00
2016,08,07,15,01,15.00
2016,08,07,15,02,14.90
2016,08,07,15,03,14.90
2016,08,07,15,04,14.90
2016,08,07,15,05,14.90
2016,08,07,15,06,14.90
2016,08,07,15,07,14.90
2016,08,07,15,08,14.90
2016,08,07,15,09,14.90
2016,08,07,15,10,14.80
2016,08,07,15,11,14.80
2016,08,07,15,12,14.80
2016,08,07,15,13,14.80
2016,08,07,15,14,14.80
2016,08,07,15,15,14.80
2016,08,07,15,16,14.80
2016,08,07,15,17,14.80
2016,08,07,15,18,14.80
2016,08,07,15,19,14.80
2016,08,07,15,20,14.90
2016,08,07,15,21,14.90
2016,08,07,15,22,14.90
2016,08,07,15,23,15.00
2016,08,07,15,24,15.00
2016,08,07,15,25,15.10
2016,08,07,15,26,15.10
2016,08,07,15,27,15.20
2016,08,07,15,28,15.20
2016,08,07,15,29,15.20
2016,08,07,15,30,15.20
2016,08,07,15,31,15.20
2016,08,07,15,32,15.20
2016,08,07,15,33,15.20
2016,08,07,15,34,15.30
2016,08,07,15,35,15.30
2016,08,07,15,36,15.30
2016,08,07,15,37,15.40
2016,08,07,15,38,15.30
2016,08,07,15,39,15.30
2016,08,07,15,40,15.40
2016,08,07,15,41,15.40
2016,08,07,15,42,15.50
2016,08,07,15,43,15.50
2016,08,07,15,44,15.60
2016,08,07,15,45,15.70
2016,08,07,15,46,15.70
2016,08,07,15,47,15.80
2016,08,07,15,48,15.80
2016,08,07,15,49,15.80
2016,08,07,15,50,15.90
2016,08,07,15,51,15.90
2016,08,07,15,52,16.00
2016,08,07,15,53,16.10
2016,08,07,15,54,16.10
2016,08,07,15,55,16.20
2016,08,07,15,56,16.20
2016,08,07,15,57,16.20
2016,08,07,15,58,16.30
2016,08,07,15,59,16.30
2016,08,07,16,00,16.30
2016,08,07,16,01,16.40
2016,08,07,16,02,16.40
2016,08,07,16,03,16.40
2016,08,07,16,04,16.50
2016,08,07,16,05,16.60
2016,08,07,16,06,16.60
2016,08,07,16,07,16.60
2016,08,07,16,08,16.70
2016,08,07,16,09,16.70
2016,08,07,16,10,16.80
2016,08,07,16,11,16.80
2016,08,07,16,12,16.80
2016,08,07,16,13,16.80
2016,08,07,16,14,16.70
2016,08,07,16,15,16.70
2016,08,07,16,16,16.70
2016,08,07,16,17,16.70
2016,08,07,16,18,16.70
2016,08,07,16,19,16.70
2016,08,07,16,20,16.70
2016,08,07,16,21,16.70
2016,08,07,16,22,16.80
2016,08,07,16,23,16.80
2016,08,07,16,24,16.80
2016,08,07,16,25,16.80
2016,08,07,16,26,16.80
2016,08,07,16,27,16.90
2016,08,07,16,28,16.90
2016,08,07,16,29,16.90
2016,08,07,16,30,16.90
2016,08,07,16,31,16.90
2016,08,07,16,32,16.80
2016,08,07,16,33,16.80
2016,08,07,16,34,16.90
2016,08,07,16,35,16.90
2016,08,07,16,36,16.90
2016,08,07,16,37,17.00
2016,08,07,16,38,17.00
2016,08,07,16,39,17.00
2016,08,07,16,40,16.90
2016,08,07,16,41,16.90
2016,08,07,16,42,16.90
2016,08,07,16,43,16.90
2016,08,07,16,44,16.90
2016,08,07,16,45,16.90
2016,08,07,16,46,16.90
2016,08,07,16,47,16.90
2016,08,07,16,48,16.90
2016,08,07,16,49,16.90
2016,08,07,16,50,16.90
2016,08,07,16,51,16.90
2016,08,07,16,52,16.90
2016,08,07,16,53,16.90
2016,08,07,16,54,16.90
2016,08,07,16,55,17.00
2016,08,07,16,56,17.00
2016,08,07,16,57,17.00
2016,08,07,16,58,17.00
2016,08,07,16,59,17.00
2016,08,07,17,00,17.00
2016,08,07,17,01,17.10
2016,08,07,17,02,17.10
2016,08,07,17,03,17.10
2016,08,07,17,04,17.10
2016,08,07,17,05,17.10
2016,08,07,17,06,17.10
2016,08,07,17,07,17.10
2016,08,07,17,08,17.10
2016,08,07,17,09,17.10
2016,08,07,17,10,17.10
2016,08,07,17,11,17.10
2016,08,07,17,12,17.20
2016,08,07,17,13,17.20
2016,08,07,17,14,17.20
2016,08,07,17,15,17.20
2016,08,07,17,16,17.20
2016,08,07,17,17,17.20
2016,08,07,17,18,17.20
2016,08,07,17,19,17.30